Date,TemperatureHighF,TemperatureAvgF,TemperatureLowF,DewpointHighF,DewpointAvgF,DewpointLowF,HumidityHigh,HumidityAvg,HumidityLow,PressureMaxIn,PressureMinIn,WindSpeedMaxMPH,WindSpeedAvgMPH,GustSpeedMaxMPH,PrecipitationSumIn
2013-1-1,22,8,-5,11,0,-14,80,70,59,30.68,30.27,7,0,7,0.01
2013-1-2,24,13,1,5,0,-7,72,55,38,30.79,30.47,8,1,8,0.00
2013-1-3,22,8,-6,3,-2,-12,77,63,43,30.89,30.58,6,0,6,0.00
2013-1-4,36,20,-3,13,3,-11,66,49,35,30.83,30.27,6,0,6,0.02
2013-1-5,39,23,2,17,6,-8,67,50,34,30.73,30.31,8,0,8,0.01
2013-1-6,40,26,-2,14,6,-10,70,43,32,30.80,30.09,12,1,12,0.00
2013-1-7,37,23,12,16,9,0,68,54,36,30.28,30.01,10,1,10,0.00
2013-1-8,45,29,11,19,11,-1,72,50,31,30.53,30.08,8,0,8,0.00
2013-1-9,42,26,10,20,11,2,70,54,38,30.74,30.35,8,0,8,0.00
2013-1-10,51,35,8,17,10,-2,65,38,16,30.32,29.69,24,3,24,0.00
2013-1-11,27,18,9,13,2,-8,78,49,31,30.03,29.36,52,7,52,0.00
2013-1-12,18,8,-3,-5,-9,-14,67,45,28,30.41,30.07,8,1,8,0.00
2013-1-13,17,11,-4,2,-4,-11,78,53,33,30.52,30.25,14,1,14,0.00
2013-1-14,14,4,-8,1,-4,-13,79,70,57,30.54,30.27,6,0,7,0.00
2013-1-15,27,14,-15,10,1,-21,77,55,43,30.80,30.47,14,1,14,0.00
2013-1-16,40,26,8,20,12,0,76,57,40,30.62,30.27,8,0,8,0.01
2013-1-17,40,27,10,22,15,3,78,62,45,30.84,30.45,10,1,10,0.00
2013-1-18,42,28,4,20,12,-3,75,53,37,30.66,30.27,7,1,7,0.00
2013-1-19,45,31,7,19,10,-3,65,44,25,30.73,30.34,9,1,9,0.00
2013-1-20,48,33,11,19,9,-3,68,39,16,30.60,30.15,9,1,9,0.00
2013-1-21,46,32,7,21,14,0,71,48,27,30.56,30.23,9,1,10,0.00
2013-1-22,53,36,17,19,12,3,66,38,17,30.52,30.21,14,1,14,0.00
2013-1-23,54,38,14,25,13,-2,53,37,15,30.68,30.20,10,1,10,0.00
2013-1-24,50,38,31,19,12,6,39,34,29,30.23,30.06,20,2,20,0.00
2013-1-25,51,40,29,32,28,23,79,62,43,30.20,29.97,20,1,20,0.00
2013-1-26,47,38,28,35,30,21,88,71,53,30.10,29.60,15,1,15,0.06
2013-1-27,47,41,37,29,25,19,65,53,45,29.69,29.58,19,3,20,0.01
2013-1-28,42,37,30,31,23,10,83,59,40,29.64,29.42,27,6,27,0.00
2013-1-29,25,21,17,15,7,-3,78,55,31,30.01,29.62,25,5,25,0.00
2013-1-30,35,26,6,10,6,-5,62,44,31,30.23,29.97,34,5,34,0.01
2013-1-31,44,36,17,16,11,6,63,37,28,30.20,30.05,23,4,23,0.00